Dewpoint
60 57 56 51 43 40 33 31 26 22 21 21 23 28 27 24 21 34 59 58 68 69 71 72 74 74 74 74 73 73 73 73 72 72 72 71 70 70 70 69 70 70 70 70 70 70 70 69 69
59 53 51 46 37 27 27 28 24 25 25 27 31 31 28 26 23 55 57 58 67 69 70 71 73 74 74 74 73 73 73 73 72 72 72 71 70 70 69 70 70 70 69 70 69 69 69 69 69
58 52 45 39 30 27 23 20 20 24 24 24 26 31 30 28 24 51 56 59 67 69 69 70 73 73 73 73 73 73 72 72 72 71 71 71 70 70 69 70 71 70 70 70 70 69 70 69 69
55 50 45 35 28 26 26 26 26 25 24 24 25 24 31 32 36 55 58 58 67 68 69 71 73 73 73 73 73 73 73 72 72 71 71 70 70 70 71 70 70 70 70 70 70 69 69 68 67
53 47 37 29 27 26 24 24 23 24 24 23 24 23 28 35 54 56 58 57 66 67 68 70 72 72 72 73 73 72 72 72 71 71 71 70 70 70 70 70 70 70 70 69 69 67 66 67 67
49 42 33 28 27 24 20 21 21 20 21 23 24 27 29 32 47 55 58 57 65 66 69 69 71 71 72 72 72 72 72 71 71 70 70 70 69 70 69 70 70 69 69 68 67 66 65 66 66
45 43 35 30 25 22 20 18 16 17 19 20 26 24 29 32 52 55 57 57 59 66 68 69 70 70 70 71 71 71 71 70 70 69 69 68 69 69 69 69 69 69 68 67 66 65 65 65 64
43 42 37 36 32 30 28 24 23 21 14 21 24 25 27 32 51 57 58 58 60 67 67 68 69 70 70 70 70 70 69 69 68 68 67 67 67 68 69 68 68 68 67 66 65 64 64 64 63
42 36 32 34 33 30 28 25 26 24 19 17 20 21 23 30 41 53 58 59 65 67 67 67 67 68 68 68 68 68 67 67 66 65 65 65 66 66 66 66 66 67 66 65 64 63 62 62 62
38 34 32 33 31 29 30 31 30 32 29 27 19 23 25 28 48 51 54 58 63 65 67 66 66 67 67 66 66 64 64 64 61 60 61 64 64 65 66 64 65 65 64 64 62 61 61 56 53
27 34 34 34 34 34 33 33 37 36 34 32 32 25 25 27 34 56 56 57 62 63 65 65 65 66 66 65 64 63 62 62 60 59 57 60 64 65 65 64 62 62 61 58 58 58 52 51 53
6 8 9 11 13 14 19 26 31 35 36 37 37 37 38 30 35 56 57 57 62 63 64 63 65 66 65 64 62 61 60 61 59 56 56 61 64 64 63 61 60 59 57 56 57 54 51 50 53
5 7 7 7 8 10 10 12 14 32 35 34 34 35 37 38 35 46 58 60 62 63 63 61 66 66 64 62 60 60 58 60 58 56 57 64 64 63 62 59 58 56 56 54 52 52 51 51 52
2 4 5 5 5 6 8 9 11 12 18 27 30 31 33 36 38 38 53 59 60 62 63 63 65 65 63 60 59 59 60 58 57 55 60 64 63 62 60 58 56 55 54 53 51 50 49 50 50
1 1 3 3 4 3 5 10 9 9 12 15 25 33 34 34 37 38 43 57 58 62 62 63 65 65 62 59 59 59 60 57 56 54 59 62 62 61 59 56 55 54 53 52 49 48 48 48 48
-0 1 3 0 1 2 2 2 1 0 5 9 24 29 26 28 34 37 40 51 59 61 62 63 65 64 62 60 59 60 58 57 55 55 61 62 61 60 58 55 54 52 52 50 47 46 46 45 45
0 -2 -4 -3 1 0 -1 -0 -3 -2 -3 -2 7 8 11 20 26 35 37 39 55 61 61 62 64 64 62 60 59 58 58 56 55 55 61 61 60 59 57 54 53 52 50 48 45 44 42 39 39
-5 -0 1 1 2 2 4 5 5 0 -4 -5 -5 -1 4 12 21 29 32 37 50 61 62 63 64 64 62 61 59 58 57 56 55 54 59 60 60 59 56 53 51 50 48 45 42 39 36 34 32
5 5 5 4 5 6 7 7 7 5 3 -5 -6 -5 -0 8 15 25 28 36 41 57 61 62 64 63 62 61 59 57 56 56 54 56 58 59 59 59 54 52 50 49 46 41 36 33 30 29 27
6 8 7 8 9 6 7 7 5 5 2 2 -1 -5 -3 3 11 18 25 33 38 50 59 61 63 62 62 62 60 58 56 55 54 56 57 57 56 56 53 51 50 48 44 37 32 28 28 28 29
7 8 9 10 12 11 11 10 10 10 8 7 2 -2 -2 -1 8 14 20 29 37 41 55 60 62 62 61 60 59 58 57 56 54 54 55 55 54 54 52 51 50 47 42 35 29 27 28 28 32
9 9 12 11 11 8 12 5 7 16 16 12 10 1 1 -1 4 9 16 27 36 37 52 57 61 62 60 59 58 57 56 55 54 53 54 54 53 53 53 51 49 46 40 34 30 29 30 29 29
10 11 10 10 11 10 9 11 13 11 13 15 15 15 17 11 4 11 15 25 31 41 51 57 59 61 60 59 58 57 56 56 55 54 53 53 53 53 52 51 49 45 41 35 31 32 32 35 31
12 12 10 8 9 -1 12 12 11 11 13 14 13 13 15 18 12 13 17 23 29 42 46 56 59 60 60 59 59 57 57 56 55 53 52 52 53 53 53 51 48 45 41 38 35 35 34 35 34
15 10 -1 -8 -3 2 8 5 11 15 11 12 13 14 18 20 21 13 17 22 28 41 45 55 56 58 60 60 58 58 56 56 55 54 52 52 52 52 52 52 49 45 42 39 36 38 34 35 34
13 12 5 -5 -6 -5 2 10 11 9 10 11 12 17 21 21 23 22 17 25 25 39 46 54 56 58 59 59 58 57 57 57 55 54 53 52 52 52 52 52 49 47 43 41 38 40 36 37 36
12 9 11 8 7 4 5 14 20 10 10 11 11 18 21 23 27 26 15 19 21 37 46 54 57 58 59 58 58 58 57 56 55 54 54 53 52 52 52 52 50 48 44 42 41 40 38 38 37
12 16 3 5 -5 -4 -5 3 6 9 12 12 13 20 23 27 31 28 17 19 23 38 48 55 57 57 58 58 58 57 57 56 55 55 54 53 53 52 52 51 50 48 45 42 41 41 39 38 38
10 9 11 8 10 -1 -3 2 16 12 15 14 16 23 25 29 31 29 16 19 19 39 51 55 57 56 57 57 57 56 56 55 55 54 54 53 52 52 51 51 50 48 45 43 43 41 39 38 37
14 12 12 4 1 6 2 1 14 16 16 17 18 23 26 28 29 33 30 23 32 41 52 55 56 56 57 57 56 56 56 56 55 55 55 54 52 52 51 50 49 47 46 44 42 40 38 38 36
Lifted_Index
5 5 6 7 7 7 7 7 7 6 6 6 6 5 5 5 3 1 -2 -3 -4 -6 -6 -6 -6 -6 -5 -5 -5 -4 -4 -4 -3 -3 -2 -2 -1 -1 -0 -0 -1 -1 -1 -1 -0 -0 -0 -0 -0
5 6 7 8 7 7 7 8 8 7 6 6 6 5 5 5 3 0 -2 -3 -4 -5 -6 -6 -6 -6 -5 -5 -4 -4 -4 -4 -3 -3 -2 -2 -2 -1 -0 -1 -1 -1 -1 -0 -0 -0 -0 0 0
5 6 8 8 8 7 7 8 8 7 6 6 6 6 5 5 3 0 -1 -2 -4 -5 -5 -6 -6 -6 -5 -5 -4 -4 -4 -3 -3 -2 -2 -2 -2 -1 -1 -1 -1 -1 -0 -0 -0 0 0 1 1
6 7 8 8 7 8 8 8 8 7 6 7 7 6 6 4 2 -0 -1 -2 -4 -5 -5 -5 -6 -6 -5 -5 -4 -4 -3 -3 -3 -2 -2 -2 -1 -1 -1 -1 -1 -1 -0 -0 0 1 1 2 2
6 7 7 7 7 8 9 8 8 7 6 7 7 7 6 4 1 -1 -2 -2 -4 -4 -5 -5 -5 -5 -5 -5 -4 -4 -3 -3 -2 -2 -2 -1 -1 -1 -1 -1 -1 -0 0 0 1 2 2 2 3
6 7 7 7 7 8 9 9 8 7 7 7 7 7 7 5 2 -1 -2 -2 -3 -4 -4 -5 -5 -5 -5 -5 -4 -4 -3 -3 -2 -1 -1 -1 -1 -1 -1 -1 -0 0 1 1 2 3 3 3 4
7 7 7 7 7 8 9 8 8 8 7 7 7 7 7 5 2 -0 -2 -2 -3 -3 -4 -4 -4 -4 -4 -4 -4 -3 -3 -2 -1 -1 -0 -0 -1 -1 -1 -0 0 1 1 2 3 4 4 5 5
8 7 7 7 7 7 7 7 7 7 8 7 7 7 7 6 3 1 -1 -2 -3 -3 -4 -4 -4 -4 -4 -4 -3 -3 -2 -1 -1 0 1 1 -0 -0 -0 0 1 1 2 3 4 5 5 6 6
8 8 7 7 7 7 7 7 7 7 8 8 7 7 7 6 4 2 -1 -2 -3 -3 -4 -4 -4 -4 -3 -3 -3 -2 -1 -0 1 2 2 2 1 1 1 1 1 2 3 4 5 6 7 7 7
9 8 8 7 7 7 7 7 7 8 8 8 8 8 7 7 5 2 -0 -2 -3 -4 -4 -4 -3 -3 -3 -2 -2 -1 -0 1 2 3 3 2 2 1 1 2 2 3 4 5 6 7 8 8 8
10 10 9 9 8 8 8 8 8 8 8 8 8 8 8 7 5 2 -0 -1 -3 -4 -4 -4 -3 -3 -2 -2 -1 -0 0 1 3 4 4 3 2 2 2 2 3 4 5 6 7 8 9 9 9
13 12 12 11 11 11 10 10 9 8 8 7 7 7 7 8 6 3 -0 -1 -2 -3 -4 -3 -3 -3 -2 -2 -1 -0 1 2 3 4 4 3 2 2 2 3 4 5 6 7 8 8 9 9 9
16 15 14 14 14 14 13 13 11 10 9 8 7 6 7 7 7 4 1 -1 -2 -3 -3 -3 -3 -3 -3 -2 -1 0 1 2 3 4 3 3 2 2 3 3 4 6 7 7 8 9 9 10 10
17 16 14 13 13 13 14 14 14 13 12 11 8 7 6 7 7 5 2 -1 -2 -3 -3 -3 -3 -3 -3 -2 -1 0 1 2 3 3 3 2 2 3 3 4 5 6 7 8 8 9 10 10 10
13 12 11 10 9 10 10 12 13 14 14 13 11 9 7 7 7 6 4 0 -2 -3 -3 -3 -3 -3 -3 -2 -1 -0 1 2 3 3 2 2 2 3 3 4 5 6 7 8 8 9 10 10 10
8 8 7 6 6 6 7 9 11 13 14 14 14 12 9 8 7 7 5 2 -1 -2 -3 -3 -3 -3 -3 -2 -2 -1 0 2 3 3 2 2 2 3 4 4 5 6 7 8 8 10 11 11 11
5 5 5 4 4 4 5 6 8 10 12 13 14 14 12 10 8 7 6 4 1 -1 -3 -3 -3 -3 -3 -3 -2 -1 -1 1 3 4 3 2 2 3 4 4 5 6 7 8 8 10 12 12 13
5 5 5 4 4 3 4 4 5 7 9 11 13 15 14 12 10 8 7 6 3 -0 -2 -3 -3 -3 -3 -3 -2 -2 -1 1 3 4 3 3 3 3 4 4 5 6 6 7 8 10 13 14 15
5 6 6 5 4 3 3 3 4 5 6 8 10 12 14 14 11 9 8 7 5 1 -2 -3 -3 -2 -2 -2 -2 -2 -1 0 2 4 4 4 3 3 4 4 5 5 6 7 8 10 13 15 16
6 6 6 5 4 3 3 3 2 3 4 5 7 9 11 13 12 10 9 8 6 3 -0 -2 -2 -2 -1 -1 -2 -2 -1 -0 1 3 4 4 4 4 4 5 5 5 6 7 8 10 13 15 16
6 6 6 5 5 4 3 2 2 2 2 3 5 7 9 10 11 10 9 8 7 5 2 -0 -1 -1 -1 -1 -2 -2 -1 -0 1 3 4 4 4 4 4 5 6 6 6 7 8 10 12 14 15
6 6 6 5 4 3 2 2 1 1 1 1 2 5 7 8 10 11 10 9 8 6 3 1 -0 -1 -1 -1 -2 -2 -1 -0 1 2 3 4 4 5 5 6 6 6 6 7 9 10 12 13 13
5 6 6 5 4 3 2 2 2 1 1 1 2 3 5 6 8 10 11 10 8 7 4 1 -0 -0 -0 -1 -2 -1 -1 -1 0 1 2 3 4 5 5 6 6 6 6 7 9 10 11 12 13
5 5 5 4 3 2 2 2 2 2 2 2 2 3 4 6 7 9 10 9 8 7 5 2 0 -0 0 -1 -1 -1 -1 -1 -1 -0 1 2 4 5 5 6 6 6 6 7 8 9 10 12 13
5 5 3 2 1 1 1 1 2 3 4 4 4 4 4 5 6 8 9 9 8 7 5 3 1 0 0 0 -1 -1 -1 -1 -1 -0 0 1 4 5 5 5 5 6 6 7 8 9 10 11 12
5 4 3 2 1 1 1 1 2 3 5 6 6 5 5 5 5 7 8 8 8 7 5 3 1 0 1 0 -0 -0 -0 -0 -0 -0 0 1 3 5 5 4 5 5 6 6 7 8 9 10 11
5 4 4 3 2 1 2 2 2 3 5 6 6 6 5 5 5 5 7 8 8 7 5 2 1 0 1 1 0 0 0 -0 0 0 -0 0 2 5 5 4 4 5 5 6 6 7 8 9 10
5 5 5 4 2 1 1 2 3 5 5 5 5 5 5 5 5 5 6 8 8 6 4 2 0 0 1 1 1 1 1 0 -0 -0 -0 1 2 5 5 4 4 5 5 5 6 7 7 8 9
5 6 5 4 3 2 2 3 4 6 6 6 5 5 4 4 4 4 5 6 6 5 3 1 -0 0 1 1 1 2 2 1 0 -0 0 1 2 5 5 5 4 5 5 5 6 6 6 7 8
6 6 6 4 3 3 3 3 5 6 7 6 5 4 4 4 4 4 5 6 5 4 2 0 -0 0 1 1 2 2 2 1 1 1 1 1 2 5 6 5 5 5 5 5 5 5 6 7 7